Simultaneous Nadir Overpasses (SNOs) Predictions

Prediction of SNOs between GOES-14 and AQUA Satellite Orbit:

Table of predicted SNOs for the next 14.0 days since TLE Epoch: 10/10/2025
Index Date Time (GOES-14) GOES-14 Lat,Lon AQUA Lat,Lon Distance(km) Time Diff (sec)
1 10/11/2025 10:01:55 -0.43,-108.47 -0.77,-106.85 184.75 80
2 10/11/2025 22:23:43 0.33,-108.42 -0.35,-111.45 345.86 80
3 10/13/2025 22:00:14 0.39,-108.42 0.84,-106.37 233.98 80
4 10/14/2025 10:21:53 -0.30,-108.48 0.20,-110.95 279.47 80
5 10/16/2025 09:58:22 -0.37,-108.49 -0.91,-105.84 300.67 80
6 10/16/2025 22:20:10 0.26,-108.43 -0.18,-110.45 229.93 80
7 10/18/2025 21:56:39 0.33,-108.44 0.98,-105.35 351.64 80
8 10/19/2025 10:18:18 -0.23,-108.51 0.10,-109.92 160.81 80
9 10/21/2025 09:54:47 -0.30,-108.52 -1.11,-104.83 420.65 80
10 10/21/2025 22:16:34 0.19,-108.46 -0.00,-109.43 110.06 80
11 10/23/2025 21:53:01 0.25,-108.47 1.14,-104.32 471.93 80
12 10/24/2025 10:14:40 -0.15,-108.54 -0.07,-108.89 39.96 80
